This is the latest recevied weather packets stored in our database for station/object YM2KRB-11. If no packets are shown the sender has not sent any weather packets the latest 10 day(s).
| Time | Temp. | Humidity | Pressure | Rain* | Wind** | Luminosity | Snow |
|---|---|---|---|---|---|---|---|
| 1777624808 | 11.67° C | 64% | 941.8 hPa | - | - | - | - |
| 1777623607 | 12.22° C | 61% | 941.6 hPa | - | - | - | - |
| 1777622406 | 12.78° C | 58% | 941.4 hPa | - | - | - | - |
| 1777621205 | 13.33° C | 58% | 941.4 hPa | - | - | - | - |
| 1777620005 | 12.78° C | 60% | 941 hPa | - | - | - | - |
| 1777618807 | 12.22° C | 57% | 941.3 hPa | - | - | - | - |
| 1777617604 | 13.33° C | 56% | 941.1 hPa | - | - | - | - |
| 1777616402 | 13.33° C | 56% | 940.7 hPa | - | - | - | - |
| 1777615201 | 12.78° C | 58% | 940.8 hPa | - | - | - | - |
| 1777614001 | 11.11° C | 62% | 940.5 hPa | - | - | - | - |
| 1777612800 | 10.56° C | 61% | 940.1 hPa | - | - | - | - |
| 1777611599 | 10.56° C | 56% | 940.7 hPa | - | - | - | - |
| 1777610398 | 10.56° C | 55% | 940.5 hPa | - | - | - | - |
| 1777609198 | 10.56° C | 57% | 940.5 hPa | - | - | - | - |
| 1777607997 | 11.11° C | 55% | 940.2 hPa | - | - | - | - |
| 1777606796 | 10.56° C | 57% | 940 hPa | - | - | - | - |
| 1777605595 | 10° C | 57% | 939.8 hPa | - | - | - | - |
| 1777604394 | 10° C | 57% | 939.5 hPa | - | - | - | - |
| 1777603193 | 10° C | 56% | 939.4 hPa | - | - | - | - |
| 1777601992 | 10.56° C | 57% | 939.1 hPa | - | - | - | - |
| 1777600792 | 11.11° C | 50% | 938.9 hPa | - | - | - | - |
| 1777599591 | 11.67° C | 51% | 938.9 hPa | - | - | - | - |
| 1777598390 | 11.67° C | 53% | 939.2 hPa | - | - | - | - |
| 1777597189 | 11.67° C | 55% | 938.9 hPa | - | - | - | - |
| 1777595988 | 11.67° C | 56% | 939.1 hPa | - | - | - | - |
* Rain since midnight (hover to see other rain measurements)
** Current wind speed in m/s (hover to see current wind gust speed)